Regional Weather Roundup
Issued by NWS

Current Version | Previous Version | Text Only | Print | Product List | Glossary Off
Versions: 1 2 3 4 5 6 7 8 9 10 11 12 13 14 15 16 17 18 19 20 21 22 23 24 25 26 27 28 29 30 31 32 33 34 35 36 37 38 39 40 41 42 43 44 45 46 47 48 49 50

000
ASUS42 KFFC 262303
RWRGA
WEATHER ROUNDUP FOR GEORGIA
NATIONAL WEATHER SERVICE PEACHTREE CITY GA
700 PM EDT TUE SEP 26 2017

NOTE: "FAIR" INDICATES FEW OR NO CLOUDS BELOW 12,000 FEET WITH NO
SIGNIFICANT WEATHER AND/OR OBSTRUCTIONS TO VISIBILITY.

* = USE WITH CAUTION. THE STATIONS MARKED WITH AN ASTERISK MAY NOT
REPORT WEATHER SUCH AS PRECIPITATION, FOG, OR THUNDER AND ARE NOT
QUALITY CONTROLLED BY NWS.

THE REMARK "TC" DENOTES TEMPERATURE READING IN DEGREES CELSIUS.

GAZ001>058-270000-
NORTH GEORGIA

CITY           SKY/WX    TMP DP  RH WIND       PRES   REMARKS
ATLANTA        PTCLDY    84  63  49 N8        29.92F
ATHENS         CLEAR     82  67  60 CALM      29.91S
CHAMBLEE       CLEAR     82  63  52 NW8       29.92F
PEACHTREE CITY CLEAR     82  67  60 W3        29.92S
ROME           CLEAR     86  64  47 N3        29.92S
WEST ATLANTA   CLEAR     84  66  54 NW6       29.92S
GAINESVILLE    CLEAR     84  62  47 NW6       29.95S
CARTERSVILLE   CLEAR     81  65  58 CALM      29.93S


CITY           SKY/WX    TMP DP  RH WIND       PRES   REMARKS
DALTON*        CLEAR     82  64  54 CALM      29.94S
LAWRENCEVILLE* CLEAR     84  64  51 NW5       29.93S
MARIETTA       PTCLDY    83  63  50 N6        29.93S
KENNESAW*      CLEAR     82  64  54 N6        29.94F
CANTON*        CLEAR     81  66  61 NW5       29.95S
$$

GAZ059>098-102>109-270000-
CENTRAL GEORGIA

CITY           SKY/WX    TMP DP  RH WIND       PRES   REMARKS
AUGUSTA-BUSH   CLEAR     87  67  51 N8        29.85S HX  90
AUGUSTA-DANIEL CLEAR     87  67  51 NW3       29.88S HX  90
COLUMBUS       CLEAR     87  63  44 NE6       29.89S
MACON          CLEAR     84  66  54 NE6       29.89S
ROBINS AFB     PTCLDY    84  70  62 CALM      29.88S


CITY           SKY/WX    TMP DP  RH WIND       PRES   REMARKS
LAGRANGE*      CLEAR     85  66  53 CALM      29.92S
SYLVANIA*      CLEAR     85  72  64 NW3       29.86S HX  91
MILLEDGEVILLE* CLEAR     84  66  54 CALM      29.89S
$$

GAZ099>101-110>166-270000-
SOUTH GEORGIA

CITY           SKY/WX    TMP DP  RH WIND       PRES   REMARKS
SAVANNAH       PTCLDY    87  69  54 NW6       29.85R HX  91
VALDOSTA       CLEAR     83  67  58 N5        29.87R
ALMA           CLEAR     86  67  52 N3        29.87R
ST SIMONS      CLEAR     85  72  65 CALM      29.85R HX  91
FT STEWART     CLEAR     85  68  57 NW5       29.84R
ALBANY         CLEAR     88  63  43 VRB6      29.89S
HUNTER AFB     CLEAR     85  71  61 NW5       29.82R HX  90
MOODY AFB      CLEAR     84  67  55 NE5       29.87R
BRUNSWICK      CLEAR     82  66  57 NW3       29.86R


CITY           SKY/WX    TMP DP  RH WIND       PRES   REMARKS
BAINBRIDGE*    CLEAR     88  68  51 N5        29.87S HX  91
MOULTRIE*      CLEAR     86  64  48 N3        29.89R
VIDALIA*       CLEAR     84  70  61 N3        29.87S
WAYCROSS*      CLEAR     85  65  51 N3        29.86S
DOUGLAS*       CLEAR     84  64  51 N5        29.89S
$$




USA.gov is the U.S. government's official web portal to all federal, state and local government web resources and services.